Погода в Середке

Россия / Псковская область     58°09′32″N   28°11′30″E
темп.,
°C
ветер,
м/с
пор.,
м/с
влажн.,
%
обл.,
%
осадки,
мм/ч
давл.,
гПа
погр.,
м
9 мая, вс
вс900:00+1з29875 0.0 1013184
03:00−1з29920 0.0 1015225
06:000з27963 0.0 1016209
09:00+6з36610 0.0 1017686
12:00+10з464463 0.0 10191658
15:00+12зюз353863 0.0 10192272
18:00+12ююз263666 0.0 10191974
21:00+7ю396775 0.0 1020186
10 мая, пн
пн1000:00+6ю4126836 0.0 1020295
03:00+6ю41375100 0.1 1020505
06:00+7ю51575100 0.4 1019654
09:00+10ю5136563 0.4 1020554
12:00+16ююз6954100 0.0 1021911
15:00+19ююз610475 0.0 10201539
18:00+19ю59555 0.0 10201366
21:00+15ю5137250 0.0 1022526
11 мая, вт
вт1100:00+13ю51478100 0.0 1023465
03:00+11ю4128699 0.0 1024341
06:00+10ююв4118660 0.0 1025294
09:00+14ю596092 0.0 1025467
12:00+19ю574789 0.0 1025963
15:00+21ю574191 0.0 10251189
18:00+20ю3647100 0.0 10241139
21:00+14юв31075100 0.0 1024238
12 мая, ср
ср1200:00+12юв3983100 0.0 1024172
03:00+10юв387793 0.0 1025169
06:00+9юв2778100 0.0 1025150
09:00+16юв36595 0.0 1024407
12:00+21юв35504 0.0 10231131
15:00+23вюв454618 0.0 10221871
18:00+20юв2664100 0.0 1020313
21:00+17св3975100 0.0 1018232
13 мая, чт
чт1300:00+17всв4126810 0.0 1016748
03:00+15в512794 0.0 1015928
06:00+10юв612828 0.0 1017822
09:00+13юв6106118 0.0 10171111
12:00+14вюв5136193 0.0 10151687
15:00+12вюв5107940 0.3 1014902
18:00+13юв487641 0.9 10141021
21:00+11юв388482 0.9 1014377